Regional Weather Roundup
Issued by NWS Boston, MA

Current Version | Previous Version | Text Only | Print | Product List | Glossary Off
Versions: 1 2 3 4 5 6 7 8 9 10 11 12 13 14 15 16 17 18 19 20 21 22 23 24 25 26 27
000 ASUS41 KBOX 151110 RWRBOX REGIONAL WEATHER ROUNDUP NATIONAL WEATHER SERVICE TAUNTON MA 600 AM EST FRI DEC 15 2017 NOTE: "FAIR" INDICATES FEW OR NO CLOUDS BELOW 12,000 FEET WITH NO SIGNIFICANT WEATHER AND/OR OBSTRUCTIONS TO VISIBILITY. MAZALL-151200- EASTERN MASSACHUSETTS CITY SKY/WX TMP DP RH WIND PRES REMARKS BOSTON CLOUDY 19 7 59 W9 30.06S WCI 8 BEVERLY PTCLDY 15 6 67 W3 30.05R LAWRENCE PTCLDY 15 6 67 S5 30.06S WCI 8 BEDFORD CLOUDY 11 6 81 CALM 30.04S BLUE HILL N/A 13 4 67 W8 30.01S WCI 2 NORWOOD CLOUDY 11 6 81 CALM 30.07S MARSHFIELD CLEAR 14 7 73 SW5 30.08R WCI 6 PLYMOUTH PTCLDY 11 5 77 CALM 30.07R TAUNTON CLOUDY 9 5 84 SE3 30.07R NEW BEDFORD PTCLDY 10 7 87 CALM 30.08R $$ MAZALL-151200- CAPE COD AND THE ISLANDS CITY SKY/WX TMP DP RH WIND PRES REMARKS FALMOUTH CLEAR 16 5 62 CALM 30.09R HYANNIS CLEAR 16 6 65 W6 30.07R WCI 7 CHATHAM CLEAR 13 7 77 SW3 30.09R PROVINCETOWN PTCLDY 21 14 74 W9 30.08R WCI 11 NANTUCKET CLEAR 22 11 62 NW8 30.08R WCI 12 MARTHAS VNYRD CLEAR N/A N/A N/A CALM 30.09R $$ MAZALL-151200- CENTRAL AND WESTERN MASSACHUSETTS CITY SKY/WX TMP DP RH WIND PRES REMARKS WORCESTER CLOUDY 13 5 70 W16 29.97S WCI -3 FITCHBURG CLOUDY 17 7 64 NW8 30.03S WCI 7 ORANGE NOT AVBL SPRINGFIELD CLOUDY 12 7 79 S5 30.05S WCI 4 WESTFIELD CLOUDY 12 8 84 CALM 30.07R NORTH ADAMS PTCLDY 7 4 87 W5 30.02F WCI -2 PITTSFIELD CLOUDY 4 0 83 CALM 29.97S $$ RIZALL-151200- RHODE ISLAND CITY SKY/WX TMP DP RH WIND PRES REMARKS PROVIDENCE PTCLDY 12 7 80 S8 30.09R WCI 0 NEWPORT CLEAR 16 8 71 W3 30.07S BLOCK ISLAND CLEAR 20 12 71 NW6 N/A WCI 12 SMITHFIELD PTCLDY 10 6 84 W5 30.04S WCI 2 WESTERLY CLEAR 16 6 65 CALM 30.10R $$ CTZALL-151200- CONNECTICUT CITY SKY/WX TMP DP RH WIND PRES REMARKS BRADLEY INTL MOCLDY 11 7 84 CALM 30.08S HARTFORD CLOUDY 14 5 67 S3 30.10S BRIDGEPORT CLEAR 17 6 62 CALM 30.11R DANBURY CLOUDY 11 5 77 CALM 30.07R GROTON CLEAR 16 5 62 CALM 30.10R NEW HAVEN CLEAR 19 5 54 NW6 30.10R WCI 11 CHESTER FAIR 12 3 67 CALM 30.06S MERIDEN CLEAR 6 2 83 CALM 30.10R WILLIMANTIC PTCLDY 8 4 83 CALM 30.09R OXFORD CLOUDY 8 3 80 CALM 30.04R $$ MEZ002-015-021-024-NHZ003-005-008-011-012-014-VTZ005-008-151200- NORTHERN NEW ENGLAND CITY SKY/WX TMP DP RH WIND PRES REMARKS PORTLAND ME CLEAR 10 1 67 SW3 30.02R BANGOR ME CLEAR 7 -3 64 W6 29.96R WCI -3 CONCORD NH CLEAR 0 -5 79 CALM 30.01S MANCHESTER NH PTCLDY 11 3 70 S5 30.02R WCI 3 NASHUA NH CLEAR 5 2 87 CALM 30.04S PORTSMOUTH NH PTCLDY 12 2 64 W6 30.02R WCI 3 JAFFREY NH CLEAR 9 4 80 S7 29.97S WCI -2 KEENE NH CLOUDY -3 -7 82 CALM 30.04S BURLINGTON VT CLEAR -2 -6 83 CALM 30.01S FOG MT. WASHINGTON PTCLDY -9 -15 77 W64G74 N/A WCI -48 $$ NYZ052-076-151200- EASTERN NEW YORK CITY SKY/WX TMP DP RH WIND PRES REMARKS ALBANY CLOUDY 9 5 84 S3 30.07S NEW YORK CITY MOCLDY 23 8 52 N5 30.10R WCI 17 $$ ANZALL-151200- MARINE OBSERVATIONS STATION/POSITION TIME TEMP WIND PRES VSBY WAVE AIR SEA DIR/SP/G HT/PER (UTC) (F) (DEG/KT/KT) (MB) (MI) (FT/S) BOSTON BUOY 0950 24 47 290/ 16/ 19 1016.9 2/ 3 BUZZARDS BAY 1000 22 300/ 8/ 9 1019.3R NANTUCKET SOUND 0950 23 42 310/ 16/ 19 1017.8 2/ 4 MASS BAY-STELLWA 1004 23 47 310/ 17/ 23 1017.0R 2/ 3 ISLE OF SHOALS 1000 18 270/ 17/ 20 1016.7R S OF BLOCK IS 1043 53 N/A 5/ 9 $$ ......................KEY......................... SKY/WX - SKY CONDITION/PRESENT WEATHER TMP - TEMPERATURE IN FAHRENHEIT DWPT - DEWPOINT IN FAHRENHEIT RH - RELATIVE HUMIDITY IN PERCENT WIND - DIRECTION AND SPEED IN MPH PRES - MEAN SEA LEVEL PRESSURE IN INCHES OF HG WCI - WIND CHILL INDEX VSB - VISIBILITY IN MILES HX - HEAT INDEX TC - TEMPERATURE IN CELSIUS VRB - VARIABLE WIND DIRECTION N/A - NOT AVAILABLE

USA.gov is the U.S. government's official web portal to all federal, state and local government web resources and services.